Location: Bergfeld
(52.0500°N, 11.7833°E)
Time: 11:59:10
(UTC+00:00)

Cosmos 1340 - Pass Details

Date: 17 February 2020
Orbit: 502 x 505 km, 81.2° (Epoch: 08 April)

Event Time Altitude Azimuth Distance (km) Brightness Sun altitude
Rises 05:42:44 0° 346° (NNW) 2,615 6.0 -7.2°
Reaches altitude 10° 05:44:53 10° 346° (NNW) 1,725 5.1 -6.8°
Maximum altitude 05:48:40 84° 259° (W) 513 2.6 -6.3°
Drops below altitude 10° 05:52:25 10° 171° (S) 1,709 5.6 -5.7°
Sets 05:54:31 0° 171° (S) 2,588 6.6 -5.4°
